Location: Boiro
(42.6475°N, 8.8834°W)
Time: 12:12:02
(UTC+01:00)

Tiros 1 - Pass Details

Date: 09 December 2021
Orbit: 630 x 663 km, 48.4° (Epoch: 20 January)

Event Time Altitude Azimuth Distance (km) Brightness Sun altitude
Rises 18:28:05 0° 242° (WSW) 2,907 13.6 -5.1°
Reaches altitude 10° 18:30:23 10° 243° (WSW) 2,003 11.6 -5.4°
Maximum altitude 18:35:00 89° 325° (NW) 637 7.2 -6.2°
Drops below altitude 10° 18:39:41 10° 64° (ENE) 2,025 9.0 -7.0°
Enters shadow 18:39:58 - 64° (ENE) 2,137 9.1 -7.0°
